DW4879 Weather Reports


time (UTC)temp
F
wind
direction
speed
knots
gust
knots
rain 1hr
in
rain 24hr
in
rain mn
in
humidity
%
barometer
mb
20260505041552 60 280 1.7 5.2 0.00 0.00 0.00 20 1014.5
20260505041057 60 280 2.6 7.0 0.00 0.00 0.00 21 1014.4
20260505040501 60 288 3.5 7.0 0.00 0.00 0.00 21 1014.5
20260505040056 60 309 2.6 7.0 0.00 0.00 0.00 22 1014.5
20260505035604 61 292 3.5 7.0 0.00 0.00 0.00 22 1014.4
20260505035054 61 295 3.5 6.1 0.00 0.00 0.00 23 1014.3
20260505034618 61 292 1.7 3.5 0.00 0.00 0.00 23 1014.3
20260505034051 61 275 1.7 7.8 0.00 0.00 0.00 23 1014.3
20260505033543 61 284 4.3 8.7 0.00 0.00 0.00 23 1014.4
20260505033053 61 297 3.5 11.3 0.00 0.00 0.00 24 1014.3
20260505032553 61 271 1.7 5.2 0.00 0.00 0.00 24 1014.2
20260505032106 61 271 0.9 2.6 0.00 0.00 0.00 24 1014.1
20260505031555 62 259 0.9 2.6 0.00 0.00 0.00 24 1014.0
20260505031058 62 248 0.0 7.0 0.00 0.00 0.00 25 1013.8
20260505030551 62 268 0.9 7.0 0.00 0.00 0.00 24 1013.9
20260505030055 62 258 0.0 2.6 0.00 0.00 0.00 25 1013.8
20260505025546 62 255 0.9 2.6 0.00 0.00 0.00 24 1013.8
20260505025037 62 287 0.9 2.6 0.00 0.00 0.00 24 1013.8
20260505024544 62 234 0.0 2.6 0.00 0.00 0.00 24 1013.7
20260505024035 62 234 0.0 2.6 0.00 0.00 0.00 24 1013.8
20260505023541 63 199 0.9 2.6 0.00 0.00 0.00 24 1013.8
20260505023049 63 261 0.0 1.7 0.00 0.00 0.00 23 1013.6
20260505022555 63 261 0.0 1.7 0.00 0.00 0.00 23 1013.6
20260505022046 64 257 0.0 1.7 0.00 0.00 0.00 23 1013.5
20260505021554 64 257 0.0 2.6 0.00 0.00 0.00 23 1013.6
20260505021059 64 257 0.0 2.6 0.00 0.00 0.00 23 1013.6
20260505020502 64 263 0.0 1.7 0.00 0.00 0.00 23 1013.5
20260505020105 64 266 0.0 2.6 0.00 0.00 0.00 23 1013.4
20260505015554 65 261 0.9 2.6 0.00 0.00 0.00 22 1013.5
20260505015100 65 284 0.0 1.7 0.00 0.00 0.00 23 1013.4
20260505014504 65 279 0.0 2.6 0.00 0.00 0.00 23 1013.4
20260505014058 65 309 0.0 2.6 0.00 0.00 0.00 23 1013.4
20260505013502 65 273 0.0 2.6 0.00 0.00 0.00 23 1013.3
20260505013101 65 277 0.0 6.1 0.00 0.00 0.00 22 1013.5
20260505012603 65 311 2.6 6.1 0.00 0.00 0.00 22 1013.5
20260505012053 66 297 0.9 5.2 0.00 0.00 0.00 22 1013.4
20260505011603 66 267 2.6 5.2 0.00 0.00 0.00 22 1013.4
20260505011051 66 269 1.7 4.3 0.00 0.00 0.00 22 1013.5
20260505010558 66 273 2.6 3.5 0.00 0.00 0.00 22 1013.5
20260505010105 66 296 0.9 3.5 0.00 0.00 0.00 22 1013.5
20260505005557 66 284 0.9 3.5 0.00 0.00 0.00 22 1013.5
20260505005104 66 227 1.7 6.1 0.00 0.00 0.00 22 1013.7
20260505004604 67 296 2.6 6.1 0.00 0.00 0.00 22 1013.7
20260505004059 67 289 1.7 6.1 0.00 0.00 0.00 22 1013.6
20260505003605 67 219 1.7 6.1 0.00 0.00 0.00 22 1013.9
20260505003008 67 297 2.6 7.0 0.00 0.00 0.00 22 1013.7
20260505002604 67 293 3.5 7.0 0.00 0.00 0.00 22 1013.9
20260505002007 67 317 3.5 5.2 0.00 0.00 0.00 22 1013.9
20260505001629 67 315 3.5 5.2 0.00 0.00 0.00 22 1014.0
20260505001003 67 311 1.7 8.7 0.00 0.00 0.00 21 1014.1
20260505000557 67 281 2.6 8.7 0.00 0.00 0.00 21 1014.1
20260505000104 67 300 5.2 8.7 0.00 0.00 0.00 21 1014.1
20260504235556 67 284 0.9 8.7 0.00 0.00 0.00 22 1014.0
20260504235049 67 292 4.3 8.7 0.00 0.00 0.00 22 1014.0
20260504234556 68 306 3.5 7.0 0.00 0.00 0.00 22 1014.1
20260504234044 68 309 1.7 7.0 0.00 0.00 0.00 22 1014.1
20260504233534 68 310 2.6 7.0 0.00 0.00 0.00 22 1014.1
20260504233055 68 293 1.7 8.7 0.00 0.00 0.00 21 1014.2
20260504232546 68 355 6.1 8.7 0.00 0.00 0.00 22 1014.2
20260504232054 68 325 2.6 9.6 0.00 0.00 0.00 21 1014.1
20260504231600 68 302 4.3 9.6 0.00 0.00 0.00 22 1014.2
20260504231002 69 324 2.6 7.0 0.00 0.00 0.00 21 1014.3
20260504230509 69 336 2.6 7.0 0.00 0.00 0.00 21 1014.3
20260504230101 68 315 0.0 7.8 0.00 0.00 0.00 22 1014.3
20260504225556 68 305 0.9 7.8 0.00 0.00 0.00 22 1014.4
20260504225100 68 305 4.3 10.4 0.00 0.00 0.00 21 1014.4
20260504224505 68 330 6.1 10.4 0.00 0.00 0.00 22 1014.3
20260504224010 68 290 5.2 10.4 0.00 0.00 0.00 22 1014.3
20260504223605 68 278 7.0 10.4 0.00 0.00 0.00 22 1014.3
20260504223007 68 321 1.7 8.7 0.00 0.00 0.00 21 1014.3
20260504222604 68 288 1.7 8.7 0.00 0.00 0.00 21 1014.5
20260504222003 68 294 3.5 8.7 0.00 0.00 0.00 21 1014.5
20260504221559 67 272 4.3 13.0 0.00 0.00 0.00 21 1014.4
20260504221106 68 251 4.3 13.0 0.00 0.00 0.00 21 1014.6
20260504220507 68 309 7.8 11.3 0.00 0.00 0.00 21 1014.6
20260504220105 68 306 3.5 8.7 0.00 0.00 0.00 21 1014.8
20260504215556 69 277 3.5 9.6 0.00 0.00 0.00 21 1014.8
20260504215102 69 269 6.1 10.4 0.00 0.00 0.00 21 1014.9
20260504214507 68 329 7.0 11.3 0.00 0.00 0.00 21 1014.9
20260504214059 69 303 7.0 11.3 0.00 0.00 0.00 21 1014.9
20260504213503 69 316 2.6 8.7 0.00 0.00 0.00 21 1014.9
20260504213058 69 203 1.7 8.7 0.00 0.00 0.00 21 1015.1
20260504212604 68 243 1.7 10.4 0.00 0.00 0.00 21 1015.0
20260504212057 68 292 7.0 10.4 0.00 0.00 0.00 22 1015.0
20260504211546 68 317 4.3 10.4 0.00 0.00 0.00 22 1015.4
20260504211053 68 325 5.2 10.4 0.00 0.00 0.00 21 1015.4
20260504210545 69 309 6.1 12.2 0.00 0.00 0.00 22 1015.5
20260504210052 69 302 5.2 12.2 0.00 0.00 0.00 21 1015.6
20260504205556 70 293 2.6 7.0 0.00 0.00 0.00 21 1015.6
20260504205104 70 252 2.6 7.0 0.00 0.00 0.00 21 1015.5
20260504204502 70 225 2.6 9.6 0.00 0.00 0.00 21 1015.9
20260504204010 70 227 5.2 9.6 0.00 0.00 0.00 21 1015.9
20260504203502 70 199 0.9 8.7 0.00 0.00 0.00 22 1016.0
20260504203009 69 207 5.2 8.7 0.00 0.00 0.00 22 1015.9
20260504202605 69 238 4.3 8.7 0.00 0.00 0.00 22 1015.9
20260504202006 69 190 3.5 8.7 0.00 0.00 0.00 23 1016.1
20260504201601 69 202 0.9 7.8 0.00 0.00 0.00 23 1016.1
20260504201053 70 223 4.3 10.4 0.00 0.00 0.00 22 1016.2
20260504200600 70 199 4.3 8.7 0.00 0.00 0.00 21 1016.1
20260504200054 69 311 3.5 7.8 0.00 0.00 0.00 22 1016.3
20260504195557 69 254 1.7 9.6 0.00 0.00 0.00 23 1016.3
20260504195102 68 234 3.5 9.6 0.00 0.00 0.00 23 1016.4
20260504194506 68 273 2.6 9.6 0.00 0.00 0.00 24 1016.5
20260504194101 67 208 4.3 9.6 0.00 0.00 0.00 24 1016.4
20260504193506 67 270 4.3 9.6 0.00 0.00 0.00 26 1016.4
20260504193109 67 298 5.2 10.4 0.00 0.00 0.00 25 1016.5
20260504192551 67 226 3.5 10.4 0.00 0.00 0.00 26 1016.5
20260504192058 67 219 4.3 8.7 0.00 0.00 0.00 25 1016.4
20260504191615 67 285 1.7 9.6 0.00 0.00 0.00 26 1016.4
20260504191007 67 280 4.3 10.4 0.00 0.00 0.00 26 1016.5
20260504190604 67 267 3.5 9.6 0.00 0.00 0.00 26 1016.4
20260504190006 66 259 3.5 8.7 0.00 0.00 0.00 27 1016.6
20260504185600 66 188 2.6 7.8 0.00 0.00 0.00 27 1016.8
20260504185002 65 217 3.5 7.8 0.00 0.00 0.00 28 1016.7
20260504184557 65 286 2.6 8.7 0.00 0.00 0.00 29 1016.8
20260504184048 65 281 3.5 7.8 0.00 0.00 0.00 29 1016.8
20260504183557 65 259 2.6 7.0 0.00 0.00 0.00 30 1016.9
20260504183046 64 277 2.6 11.3 0.00 0.00 0.00 30 1016.9
20260504182555 64 284 3.5 11.3 0.00 0.00 0.00 30 1016.9
20260504182103 64 290 4.3 10.4 0.00 0.00 0.00 29 1017.0
20260504181506 64 304 3.5 10.4 0.00 0.00 0.00 30 1017.1
20260504181058 64 249 4.3 8.7 0.00 0.00 0.00 29 1017.1
20260504180607 64 298 4.3 12.2 0.00 0.00 0.00 29 1017.3
20260504180058 64 274 3.5 10.4 0.00 0.00 0.00 29 1017.3
20260504175504 63 241 5.2 10.4 0.00 0.00 0.00 29 1017.3
20260504175057 63 268 3.5 9.6 0.00 0.00 0.00 30 1017.1
20260504174605 63 288 3.5 9.6 0.00 0.00 0.00 31 1017.2
20260504174056 63 202 4.3 9.6 0.00 0.00 0.00 31 1017.1
20260504173550 62 212 1.7 7.0 0.00 0.00 0.00 32 1017.2
20260504173054 62 330 2.6 7.8 0.00 0.00 0.00 34 1017.2
20260504172600 62 275 3.5 7.8 0.00 0.00 0.00 34 1017.3
20260504172004 61 188 3.5 7.8 0.00 0.00 0.00 34 1017.4
20260504171559 61 261 1.7 8.7 0.00 0.00 0.00 35 1017.3
20260504171003 61 281 3.5 8.7 0.00 0.00 0.00 36 1017.3
20260504170508 60 267 3.5 9.6 0.00 0.00 0.00 37 1017.3
20260504160124 57 304 2.6 7.0 0.00 0.00 0.00 45 1017.4
20260504151050 56 294 0.9 1.7 0.00 0.00 0.00 47 1017.7
20260504150539 56 271 0.0 1.7 0.00 0.00 0.00 46 1017.6
20260504141002 53 110 0.0 2.6 0.00 0.00 0.00 52 1017.4
20260504140509 53 116 0.9 2.6 0.00 0.00 0.00 53 1017.5
20260504130534 52 76 3.5 8.7 0.00 0.00 0.00 55 1016.8
20260504110555 54 73 2.6 5.2 0.00 0.00 0.00 47 1016.5
20260504100519 55 32 2.6 8.7 0.00 0.00 0.00 45 1016.3
20260504100104 55 360 3.5 8.7 0.00 0.00 0.00 45 1016.3
20260504082003 57 118 3.5 7.8 0.00 0.00 0.00 41 1016.2
20260504081556 57 103 2.6 6.1 0.00 0.00 0.00 40 1016.1
20260504081104 57 103 1.7 4.3 0.00 0.00 0.00 40 1016.2
20260504080555 57 127 1.7 4.3 0.00 0.00 0.00 40 1016.2
20260504050542 62 286 0.0 1.7 0.00 0.00 0.00 33 1017.0